CW2073 Weather Reports


time (UTC)temp
C
wind
direction
speed
KPH
gust
KPH
rain 1hr
cm
rain 24hr
cm
rain mn
cm
humidity
%
barometer
mb
20260504150521 17 233 4.8 14.5 0.00 0.00 0.00 38 1011.8
20260504140519 16 224 3.2 11.3 0.00 0.00 0.00 41 1012.5
20260504130520 13 259 6.4 14.5 0.00 0.00 0.00 46 1013.0
20260504110522 6 81 0.0 1.6 0.00 0.00 0.00 75 1013.3
20260504100520 6 71 0.0 0.0 0.00 0.00 0.00 71 1013.1
20260504081520 8 246 4.8 8.0 0.00 0.00 0.00 56 1012.7
20260504080517 8 249 4.8 8.0 0.00 0.00 0.00 56 1012.6
20260504050520 7 257 1.6 6.4 0.00 0.00 0.00 62 1012.1
20260504045520 7 274 1.6 3.2 0.00 0.00 0.00 64 1012.1
20260504044520 7 264 1.6 6.4 0.00 0.00 0.00 66 1012.1
20260504043519 6 262 1.6 4.8 0.00 0.00 0.00 69 1012.0
20260504042521 6 254 1.6 4.8 0.00 0.00 0.00 72 1011.9
20260504041520 6 62 0.0 3.2 0.00 0.00 0.00 74 1011.7
20260504040520 6 284 0.0 3.2 0.00 0.00 0.00 74 1011.7
20260504035521 6 182 0.0 1.6 0.00 0.00 0.00 73 1011.6
20260504034521 6 27 0.0 1.6 0.00 0.00 0.00 72 1011.7
20260504033520 6 31 0.0 1.6 0.00 0.00 0.00 71 1011.7
20260504032520 6 58 0.0 0.0 0.00 0.00 0.00 70 1011.8
20260504031522 6 58 0.0 1.6 0.00 0.00 0.00 69 1011.7
20260504030519 7 0.0 0.0 0.00 0.00 0.00 67 1011.7
20260504025521 7 49 0.0 1.6 0.00 0.00 0.00 66 1011.7
20260504024521 7 66 0.0 1.6 0.00 0.00 0.00 66 1011.7
20260504023541 7 47 0.0 1.6 0.00 0.00 0.00 64 1011.7
20260504022543 7 47 0.0 1.6 0.00 0.00 0.00 63 1011.8
20260504021519 8 16 0.0 1.6 0.00 0.00 0.00 61 1011.7
20260504020541 8 41 0.0 3.2 0.00 0.00 0.00 60 1011.7
20260504015518 8 49 0.0 0.0 0.00 0.00 0.00 57 1011.7
20260504014519 8 50 0.0 4.8 0.00 0.00 0.00 56 1011.6
20260504013539 9 73 0.0 1.6 0.00 0.00 0.00 55 1011.5
20260504012520 10 304 0.0 1.6 0.00 0.00 0.00 54 1011.5
20260504011519 10 47 0.0 0.0 0.00 0.00 0.00 52 1011.4
20260504010520 11 0.0 0.0 0.00 0.00 0.00 47 1011.2
20260504005520 11 0.0 0.0 0.00 0.00 0.00 45 1011.0
20260504004520 12 276 0.0 4.8 0.00 0.00 0.00 44 1010.9
20260504003519 13 262 1.6 4.8 0.00 0.00 0.00 40 1010.8
20260504002520 13 264 1.6 6.4 0.00 0.00 0.00 40 1010.7
20260504001518 13 250 1.6 6.4 0.00 0.00 0.00 39 1010.5
20260504000542 13 254 1.6 6.4 0.00 0.00 0.00 37 1010.4
20260503235521 14 262 3.2 8.0 0.00 0.00 0.00 36 1010.3
20260503234521 14 266 4.8 9.7 0.00 0.00 0.00 35 1010.1
20260503233518 15 255 4.8 9.7 0.00 0.00 0.00 34 1010.0
20260503232521 15 268 3.2 9.7 0.00 0.00 0.00 33 1009.9
20260503231519 15 255 3.2 8.0 0.00 0.00 0.00 33 1009.8
20260503230604 15 274 1.6 9.7 0.00 0.00 0.00 33 1009.7
20260503225519 15 260 3.2 14.5 0.00 0.00 0.00 32 1009.6
20260503224518 15 252 6.4 17.7 0.00 0.00 0.00 32 1009.5
20260503223539 15 257 6.4 17.7 0.00 0.00 0.00 32 1009.4
20260503222518 15 255 8.0 20.9 0.00 0.00 0.00 31 1009.5
20260503221520 15 37 1.6 6.4 0.00 0.00 0.00 32 1009.6
20260503220523 15 14 3.2 8.0 0.00 0.00 0.00 32 1009.6
20260503215640 15 260 6.4 16.1 0.00 0.00 0.00 32 1009.5
20260503214520 15 260 8.0 19.3 0.00 0.00 0.00 31 1009.5
20260503213519 15 254 4.8 14.5 0.00 0.00 0.00 32 1009.5
20260503212520 15 270 4.8 16.1 0.00 0.00 0.00 32 1009.5
20260503211541 15 275 4.8 14.5 0.00 0.00 0.00 33 1009.4
20260503210521 14 315 4.8 14.5 0.00 0.00 0.00 33 1009.5
20260503205519 14 255 9.7 24.1 0.00 0.00 0.00 32 1009.4
20260503204520 14 262 9.7 24.1 0.00 0.00 0.00 33 1009.5
20260503203540 14 258 8.0 22.5 0.00 0.00 0.00 34 1009.5
20260503202520 14 351 3.2 9.7 0.00 0.00 0.00 34 1009.5
20260503201521 14 249 3.2 14.5 0.00 0.00 0.00 34 1009.5
20260503200539 13 263 6.4 16.1 0.00 0.00 0.00 34 1009.5
20260503195519 13 261 9.7 20.9 0.00 0.00 0.00 33 1009.6
20260503194521 13 269 6.4 20.9 0.00 0.00 0.00 34 1009.7
20260503193522 13 283 4.8 11.3 0.00 0.00 0.00 34 1009.9
20260503192518 13 248 4.8 16.1 0.00 0.00 0.00 35 1010.0
20260503191538 13 259 9.7 22.5 0.00 0.00 0.00 35 1010.0
20260503190519 13 285 4.8 12.9 0.00 0.00 0.00 36 1010.1
20260503185539 13 285 4.8 12.9 0.00 0.00 0.00 38 1010.2
20260503184521 12 254 11.3 24.1 0.00 0.00 0.00 37 1010.1
20260503183519 12 276 6.4 20.9 0.00 0.00 0.00 39 1010.4
20260503182519 12 271 6.4 14.5 0.00 0.00 0.00 39 1010.4
20260503181520 12 265 6.4 19.3 0.00 0.00 0.00 40 1010.5
20260503180519 12 251 11.3 24.1 0.00 0.00 0.00 38 1010.4
20260503175521 12 271 4.8 16.1 0.00 0.00 0.00 41 1010.5
20260503174520 11 317 3.2 9.7 0.00 0.00 0.00 41 1010.7
20260503173521 12 255 9.7 30.6 0.00 0.00 0.00 40 1010.6
20260503172521 11 285 4.8 14.5 0.00 0.00 0.00 43 1010.8
20260503171520 11 259 8.0 20.9 0.00 0.00 0.00 42 1011.0
20260503170520 11 267 6.4 12.9 0.00 0.00 0.00 42 1011.0